Location: Los Ranchitos
(37.9930°N, 122.5425°W)
Time: 07:51:06
(UTC+00:00)

ATLAS 2AS CENTAUR R/B - Pass Details

Date: 21 September 2020
Orbit: 939 x 1273 km, 63.7° (Epoch: 27 October)

Event Time Altitude Azimuth Distance (km) Brightness Sun altitude
Rises 02:39:11 0° 160° (SSE) 4,148 5.5 -6.7°
Reaches altitude 10° 02:43:04 10° 141° (SE) 3,223 4.8 -7.5°
Maximum altitude 02:47:45 17° 104° (ESE) 2,739 4.2 -8.4°
Drops below altitude 10° 02:52:29 10° 67° (ENE) 3,267 4.7 -9.3°
Sets 02:56:25 0° 49° (NE) 4,229 5.4 -10.1°
